Location: Kellogg
(38.0159°N, 90.0546°W)
Time: 20:08:50
(UTC+00:00)

Tiros 1 despin weight - Pass Details

Date: 21 September 2024
Orbit: 572 x 614 km, 48.2° (Epoch: 08 October)

Event Time Altitude Azimuth Distance (km) Brightness Sun altitude
Exits shadow 09:27:37 22° 353° (N) 1,352 ? -27.6°
Maximum altitude 09:27:53 22° 358° (N) 1,347 ? -27.5°
Drops below altitude 10° 09:31:28 10° 50° (NE) 1,980 ? -26.9°
Sets 09:34:15 0° 66° (ENE) 2,893 ? -26.4°
